Location: Goheenville
(40.9070°N, 79.3720°W)
Time: 18:43:02
(UTC-04:00)

Daily predictions for brighter satellites

Satellite Brightness Start Highest point End
(mag) Time Altitude Azimuth Time Altitude Azimuth Time Altitude Azimuth
SL-16 R/B 4.2 20:22:18 10° WSW 20:27:25 34° WNW 20:32:34 10° N
Cosmos 2333 4.5 20:24:16 10° S 20:29:38 45° ESE 20:34:58 10° NE
FREGAT/IRIS 3.4 20:27:20 10° S 20:30:13 53° W 20:33:08 10° NNW
NOSS 7 (D) 4.3 20:28:18 10° SSW 20:31:52 89° NW 20:35:03 10° NE
Cosmos 1844 Rocket 3.1 20:29:18 10° NNW 20:34:48 48° ENE 20:40:15 10° SE
Cosmos 1844 4.4 20:29:32 10° N 20:34:49 38° ENE 20:40:08 10° SE
Cosmos 2263 Rocket 3.9 20:31:26 10° NW 20:36:33 35° WSW 20:41:38 10° SSW
Cosmos 1455 3.5 20:35:18 10° SE 20:38:13 21° E 20:41:09 10° NE
Cosmos 2237 Rocket 3.5 20:39:35 10° SE 20:43:17 18° E 20:47:00 10° ENE
Cosmos 1892 3.5 20:40:14 10° N 20:43:48 34° ENE 20:47:21 10° SE
Cosmos 2219 Rocket 2.6 20:38:50 10° S 20:44:03 39° ESE 20:49:15 10° NE
Cosmos 2074 Rocket 4.2 20:38:11 10° S 20:44:29 81° W 20:50:48 10° N
ERS-2 2.1 20:41:21 10° SSE 20:45:00 76° ENE 20:48:41 10° N
Lacrosse 5 4.4 20:43:43 10° NW 20:46:18 14° N 20:48:53 10° NNE
BREEZE-M DEB (TANK) 3.7 20:42:04 10° WNW 20:47:19 38° NNE 20:49:38 11° E
NOSS 2-1 (E) 3.1 20:45:25 10° SSW 20:48:57 59° ESE 20:52:52 10° NE
Cosmos 1610 Rocket 4.4 20:44:46 10° S 20:50:52 76° E 20:57:02 10° N
ATLAS CENTAUR R/B 2.3 20:48:31 10° SSE 20:51:20 21° ESE 20:54:13 10° ENE
Cosmos 2278 Rocket 3.5 20:47:04 10° N 20:51:38 24° NE 20:55:31 13° ESE
Timation 1 Rocket 4.5 20:50:27 10° NNW 20:56:22 61° ENE 21:01:55 12° SE
USA 186 0.7 20:55:32 10° SSE 20:57:43 82° ENE 20:59:58 10° N
Cosmos 1666 Rocket 3.6 20:53:25 10° N 20:57:52 61° E 21:02:16 10° SSE
Resurs 1-3 3.6 20:54:44 10° SSE 20:59:03 63° ENE 21:03:24 10° N
NOSS 3-3 (A) 4.0 20:54:52 10° SSW 21:00:40 56° ESE 21:07:01 10° NE
NOSS 3-3 (C) 4.0 20:54:58 10° SSW 21:00:46 55° ESE 21:07:07 10° NE
H-2A R/B 3.7 20:58:30 12° E 21:00:53 16° ENE 21:03:56 10° NNE
OAO 2 Rocket 4.0 20:56:28 10° WSW 21:01:22 42° S 21:04:58 17° ESE
YAOGAN 6 2.5 21:02:35 10° SSE 21:06:08 88° WSW 21:09:48 10° NNW
Meteor 2-21 Rocket 4.4 21:00:35 10° S 21:06:37 66° E 21:12:45 10° NNE
USA 267 4.1 21:06:55 10° ENE 21:12:02 24° ESE 21:17:07 10° S
Sich 1 3.0 21:08:43 10° N 21:13:01 82° W 21:17:16 10° S
SAR-Lupe-3 4.5 21:10:04 10° NNE 21:13:39 65° ESE 21:17:11 10° S
Nadezhda 3 Rocket 4.0 21:07:57 10° N 21:14:17 86° E 21:20:38 10° S
Cosmos 1340 3.2 21:11:17 10° SSW 21:15:01 60° W 21:18:48 10° N
Cosmos 1151 Rocket 3.6 21:13:26 17° SSE 21:16:15 36° E 21:20:10 10° NNE
Cosmos 220 Rocket 4.4 21:12:46 10° N 21:16:58 45° ENE 21:19:12 24° SE
Cosmos 2251 Rocket 3.7 21:12:24 10° NNW 21:17:48 79° WSW 21:23:05 10° SSE
Cosmos 1939 Rocket 3.2 21:16:44 10° S 21:20:32 63° W 21:24:25 10° NNW
Envisat 4.5 21:20:20 10° SSW 21:24:59 36° W 21:29:41 10° NNW
Cosmos 1825 3.0 21:24:22 10° NNE 21:27:48 32° ENE 21:28:24 30° E
Meteor 2-3 Rocket 3.6 21:24:11 10° N 21:29:49 83° E 21:34:38 14° SSE
Cosmos 1633 Rocket 3.3 21:27:29 10° NNW 21:31:49 68° W 21:35:52 12° S
SL-16 R/B 3.7 21:33:19 17° E 21:33:19 17° E 21:35:40 10° ENE
Cosmos 2098 Rocket 4.0 21:31:02 28° ESE 21:31:58 31° E 21:35:37 10° NNE
Cosmos 2056 Rocket 4.5 21:32:53 26° ESE 21:33:21 27° E 21:37:48 10° NE
Cosmos 1869 4.0 21:34:42 33° E 21:34:56 33° E 21:38:35 10° NNE
Cosmos 2228 Rocket 3.0 21:32:02 16° S 21:35:30 64° E 21:39:52 10° NNE
Meteor 2-16 Rocket 4.5 21:32:51 10° S 21:39:00 83° W 21:45:10 10° N
SL-8 R/B 3.8 21:34:31 10° SW 21:39:08 49° SE 21:41:34 25° E
SL-24 R/B - RUBIN 2 4.3 21:35:49 10° NW 21:39:59 46° WSW 21:42:35 21° S
Cosmos 1515 Rocket 3.5 21:37:19 15° S 21:41:00 75° E 21:45:28 10° N
ARGOS 3.3 21:44:34 33° SE 21:46:48 55° ENE 21:52:01 10° N
Helios 1A 4.2 21:49:42 26° ENE 21:49:42 26° ENE 21:53:10 10° NNE
Cosmos 1624 Rocket 4.4 21:50:09 38° ESE 21:50:39 39° ESE 21:55:27 10° NE
GEOS 3 Rocket 3.8 21:45:30 10° NE 21:50:40 48° ESE 21:55:43 10° SSW
BREEZE-M DEB (TANK) 3.1 21:48:12 10° NW 21:51:02 34° NNE 21:51:02 34° NNE
SL-08 RB Rocket 4.0 21:52:57 42° E 21:53:38 46° ENE 21:57:56 10° N
MetOp-B 4.3 21:51:53 37° SE 21:53:44 57° ENE 21:58:59 10° N
Resurs 01 Rocket 3.3 21:53:10 10° SSW 21:57:07 31° W 22:01:05 10° NW
Cosmos 1980 3.6 21:53:05 10° SSW 21:58:47 87° ESE 22:04:30 10° NNE
Cosmos 1727 Rocket 4.1 21:57:02 10° N 22:03:06 56° E 22:04:57 41° SE
BREEZE-M DEB (TANK) 4.3 21:57:56 10° WNW 22:03:15 25° NNW 22:05:13 14° NNE
Cosmos 1959 Rocket 4.4 22:00:08 17° S 22:05:01 85° E 22:11:10 10° N
Cosmos 2333 Rocket 3.0 21:59:36 10° SW 22:05:08 53° WNW 22:10:41 10° NNE
Cosmos 1470 Rocket 4.5 22:08:41 10° NNW 22:12:54 46° W 22:14:51 27° SSW
Meteor 2-10 Rocket 3.6 22:11:14 41° SSE 22:13:14 71° E 22:19:01 10° NNE
ATLAS 2AS CENTAUR R/B 3.1 22:07:07 10° NW 22:14:56 68° WSW 22:18:17 35° S
Cosmos 2218 Rocket 4.1 22:11:56 15° SSW 22:17:19 78° W 22:23:45 10° N
DMSP B5D2-2 4.4 22:13:34 10° NNE 22:18:05 45° E 22:18:05 45° E
SL-08 R/B 4.4 22:15:09 28° S 22:18:42 87° E 22:25:09 10° N
Cosmos 1862 4.3 22:15:35 10° N 22:18:24 36° NE 22:18:24 36° NE
Terra 3.3 22:21:55 23° NE 22:21:55 23° NE 22:25:02 10° NNE
ATLAS 2A CENTAUR R/B 4.5 22:12:32 10° SW 22:24:26 26° S 22:24:57 26° S
Cosmos 1408 3.8 22:21:33 10° NNW 22:24:56 36° W 22:25:16 36° WSW
Cosmos 2237 Rocket 2.6 22:21:14 10° SW 22:26:46 61° WNW 22:32:22 10° NNE
Cosmos 2219 Rocket 4.0 22:23:06 10° WSW 22:28:03 31° WNW 22:33:02 10° N
ATLAS CENTAUR R/B 3.1 22:26:52 10° WSW 22:30:06 29° NW 22:33:29 10° NNE
SPOT 5 3.0 22:30:51 56° NE 22:30:51 56° NE 22:34:48 10° N
Lacrosse 5 4.3 22:28:22 10° NNW 22:31:15 15° NNE 22:34:08 10° NE
SPOT 1/Viking Rocket 3.7 22:31:21 58° ENE 22:31:22 58° ENE 22:36:30 10° N
Cosmos 2366 rocket 4.3 22:27:19 20° SSW 22:31:40 66° W 22:37:56 10° N
USA 81 3.9 22:27:12 10° N 22:32:31 87° E 22:32:58 75° SSE
Cosmos 2278 Rocket 2.7 22:30:31 10° NNW 22:36:01 53° WSW 22:37:23 43° SSW
H-2A R/B 2.2 22:39:08 56° SW 22:39:49 62° W 22:44:47 10° NNW
NOSS 3-4 (A) 3.8 22:38:12 10° NNW 22:45:16 71° NE 22:46:43 57° ESE
NOSS 3-4 (C) 3.9 22:38:19 10° NNW 22:45:22 70° NE 22:46:49 57° ESE
ATLAS 5 CENTAUR R/B 4.4 22:43:53 10° N 22:47:35 17° NE 22:49:39 15° ENE
Cosmos 407 Rocket 3.4 22:43:09 10° NNW 22:48:01 79° NW 22:48:01 79° NW
ERS-1 Rocket 3.4 22:50:18 51° WSW 22:50:40 53° W 22:55:36 10° NNW
USA 267 3.1 22:48:57 10° NE 22:55:31 88° NW 23:02:04 10° SW
Cosmos 614 Rocket 4.5 22:52:32 10° NNW 22:56:51 52° NNE 22:56:51 52° NNE
Cosmos 676 Rocket 4.3 23:00:43 10° NNW 23:05:05 62° N 23:05:05 62° N
SL-19 R/B 4.3 23:09:46 72° WNW 23:09:46 72° WNW 23:15:03 10° NNW
Cosmos 2344 3.4 23:10:53 66° S 23:11:58 77° ESE 23:20:13 10° NE
SL-16 R/B 2.6 23:15:04 59° W 23:15:26 60° WNW 23:21:03 10° NNE
Helios 1B rocket 4.2 23:12:00 10° N 23:14:22 30° NNW 23:14:22 30° NNW
USA 234 3.6 23:27:52 51° NE 23:28:35 53° NNE 23:34:54 10° NW
Cosmos 1934 Rocket 4.2 23:31:58 62° N 23:31:58 62° N 23:36:56 10° N
Cosmos 1943 Rocket 3.8 23:28:30 10° N 23:32:07 25° NE 23:32:07 25° NE
CZ-2C R/B 4.3 23:39:39 33° N 23:39:39 33° N 23:42:18 10° N
SeaSat 1 4.5 23:55:37 21° NNE 23:55:37 21° NNE 23:58:09 10° N
